User: anonymous   Login
Location: Unspecified
(0.0000°N, 0.0000°E)
Time: 06:45:00
(UTC+00:00)
Language:

STARLINK-30102 - Orbit

View from above orbital plane
View from above orbital plane
View from above satellite
View from above satellite

Ground track
Ground track

The orbit is defined by the following mean orbital elements,

1 57434U          26145.59988514 +.00000000 +00000-0 -29943-4 0 00005
2 57434  42.9999 185.5546 0001300 269.3405  90.7298 15.27575647    08
Epoch (UTC): 25 May 2026 14:23:50
Eccentricity: 0.0001300
inclination: 42.9999°
perigee height: 482 km
apogee height: 484 km
right ascension of ascending node: 185.5546°
argument of perigee: 269.3405°
revolutions per day: 15.27575647
mean anomaly at epoch: 90.7298°

The dashed part of the orbit path shows where the satellite is in the earth's shadow,  

DLR